Location: Amherst
(42.3800°N, 72.5240°W)
Time: 15:54:48
(UTC-05:00)

ISS - Visible Passes

Search period start: 22 February 2018 00:00
Search period end: 04 March 2018 00:00
Orbit: 402 x 407 km, 51.6° (Epoch: 23 February)

Date Brightness Start Highest point End Pass type
(mag) Time Alt. Az. Time Alt. Az. Time Alt. Az.
25 Feb -1.4 05:51:14 10° S 05:53:54 23° SE 05:56:34 10° E visible
26 Feb -0.8 05:00:20 10° SSE 05:01:50 13° SE 05:03:21 10° ESE visible
27 Feb -3.2 05:42:26 10° SW 05:45:38 55° SE 05:48:51 10° ENE visible
28 Feb -2.1 04:51:44 18° S 04:53:27 29° SE 04:56:20 10° ENE visible
01 Mar -1.0 04:01:59 15° ESE 04:01:59 15° ESE 04:03:24 10° E visible
01 Mar -3.8 05:34:40 13° WSW 05:37:28 64° NNW 05:40:44 10° NE visible
02 Mar -3.7 04:44:45 61° SSW 04:45:09 70° SE 04:48:25 10° ENE visible
03 Mar -1.1 03:54:43 19° E 03:54:43 19° E 03:55:56 10° ENE visible
03 Mar -2.8 05:27:22 17° W 05:29:22 33° NNW 05:32:24 10° NE visible
